Time,TemperatureF,DewpointF,PressureIn,WindDirection,WindDirectionDegrees,WindSpeedMPH,WindSpeedGustMPH,Humidity,HourlyPrecipIn,Conditions,Clouds,dailyrainin,SolarRadiationWatts/m^2,SoftwareType,DateUTC
2013-05-08 00:00:00,71.1,62.8,30.06,WNW,303,8.0,8.0,75,0.00,,,0.00,0,Wunderground v.1.15,2013-05-08 04:00:00,
2013-05-08 00:30:00,71.0,63.1,30.06,WNW,296,8.0,8.0,76,0.00,,,0.00,0,Wunderground v.1.15,2013-05-08 04:30:00,
2013-05-08 01:00:00,70.7,62.4,30.06,WNW,302,7.0,7.0,75,0.00,,,0.00,0,Wunderground v.1.15,2013-05-08 05:00:00,
2013-05-08 01:30:00,70.7,63.5,30.06,WNW,293,6.0,6.0,78,0.00,,,0.00,0,Wunderground v.1.15,2013-05-08 05:30:00,
2013-05-08 02:00:00,71.0,63.1,30.05,WNW,301,9.0,11.0,76,0.00,,,0.00,0,Wunderground v.1.15,2013-05-08 06:00:00,
2013-05-08 02:30:00,70.9,63.0,30.05,NW,317,8.0,9.0,76,0.00,,,0.00,0,Wunderground v.1.15,2013-05-08 06:30:00,
2013-05-08 03:00:00,70.4,62.8,30.04,WNW,296,5.0,5.0,77,0.00,,,0.00,0,Wunderground v.1.15,2013-05-08 07:00:00,
2013-05-08 03:30:00,70.3,62.7,30.05,NW,306,0.0,0.0,77,0.00,,,0.00,0,Wunderground v.1.15,2013-05-08 07:30:00,
2013-05-08 04:00:00,70.2,62.6,30.05,NW,306,0.0,0.0,77,0.00,,,0.00,0,Wunderground v.1.15,2013-05-08 08:00:00,
2013-05-08 04:30:00,70.5,62.2,30.05,NW,316,1.0,1.0,75,0.00,,,0.00,0,Wunderground v.1.15,2013-05-08 08:30:00,
2013-05-08 05:00:00,70.3,61.6,30.06,NW,315,2.0,2.0,74,0.00,,,0.00,0,Wunderground v.1.15,2013-05-08 09:00:00,
2013-05-08 05:30:00,70.2,61.1,30.05,NW,313,2.0,4.0,73,0.00,,,0.00,0,Wunderground v.1.15,2013-05-08 09:30:00,
2013-05-08 06:00:00,69.1,63.0,30.06,NW,313,0.0,0.0,81,0.00,,,0.00,0,Wunderground v.1.15,2013-05-08 10:00:00,
2013-05-08 06:30:00,68.5,63.5,30.07,NNE,23,0.0,0.0,84,0.00,,,0.00,0,Wunderground v.1.15,2013-05-08 10:30:00,
2013-05-08 07:00:00,67.8,63.5,30.08,NNE,30,0.0,0.0,86,0.00,,,0.00,26,Wunderground v.1.15,2013-05-08 11:00:00,
2013-05-08 07:30:00,68.1,63.4,30.10,NNE,30,0.0,0.0,85,0.00,,,0.00,77,Wunderground v.1.15,2013-05-08 11:30:00,
2013-05-08 08:00:00,69.6,64.2,30.10,NNE,30,0.0,0.0,83,0.00,,,0.00,162,Wunderground v.1.15,2013-05-08 12:00:00,
2013-05-08 08:30:00,71.3,63.7,30.11,NNE,31,0.0,0.0,77,0.00,,,0.00,265,Wunderground v.1.15,2013-05-08 12:30:00,
2013-05-08 09:00:00,71.0,62.7,30.12,NE,36,0.0,0.0,75,0.00,,,0.00,350,Wunderground v.1.15,2013-05-08 13:00:00,
2013-05-08 09:30:00,72.3,63.2,30.12,ESE,119,1.0,1.0,73,0.00,,,0.00,510,Wunderground v.1.15,2013-05-08 13:30:00,
2013-05-08 10:00:00,71.2,62.1,30.13,SW,222,1.0,1.0,73,0.00,,,0.00,652,Wunderground v.1.15,2013-05-08 14:00:00,
2013-05-08 10:30:00,71.6,62.5,30.13,WSW,244,3.0,4.0,73,0.00,,,0.00,733,Wunderground v.1.15,2013-05-08 14:30:00,
2013-05-08 11:00:00,71.7,61.8,30.14,West,277,5.0,6.0,71,0.00,,,0.00,770,Wunderground v.1.15,2013-05-08 15:00:00,
2013-05-08 11:30:00,71.9,62.0,30.14,WSW,250,4.0,7.0,71,0.00,,,0.00,831,Wunderground v.1.15,2013-05-08 15:30:00,
2013-05-08 12:00:00,72.1,61.8,30.14,WSW,240,4.0,8.0,70,0.00,,,0.00,881,Wunderground v.1.15,2013-05-08 16:00:00,
2013-05-08 12:30:00,71.8,61.5,30.14,WSW,241,8.0,8.0,70,0.00,,,0.00,921,Wunderground v.1.15,2013-05-08 16:30:00,
2013-05-08 13:00:00,72.0,60.9,30.14,WSW,242,8.0,8.0,68,0.00,,,0.00,946,Wunderground v.1.15,2013-05-08 17:00:00,
2013-05-08 13:30:00,72.2,61.5,30.13,West,275,8.0,8.0,69,0.00,,,0.00,954,Wunderground v.1.15,2013-05-08 17:30:00,
2013-05-08 14:00:00,72.2,61.9,30.13,WSW,253,11.0,11.0,70,0.00,,,0.00,947,Wunderground v.1.15,2013-05-08 18:00:00,
2013-05-08 14:30:00,72.3,61.6,30.12,SW,234,11.0,11.0,69,0.00,,,0.00,921,Wunderground v.1.15,2013-05-08 18:30:00,
2013-05-08 15:00:00,72.6,61.8,30.12,WSW,237,11.0,14.0,69,0.00,,,0.00,877,Wunderground v.1.15,2013-05-08 19:00:00,
2013-05-08 15:30:00,72.5,61.3,30.11,SW,234,12.0,14.0,68,0.00,,,0.00,821,Wunderground v.1.15,2013-05-08 19:30:00,
2013-05-08 16:00:00,72.6,61.8,30.10,WSW,246,12.0,12.0,69,0.00,,,0.00,751,Wunderground v.1.15,2013-05-08 20:00:00,
2013-05-08 16:30:00,73.0,62.2,30.10,WSW,248,10.0,10.0,69,0.00,,,0.00,666,Wunderground v.1.15,2013-05-08 20:30:00,
2013-05-08 17:00:00,73.2,62.4,30.10,WSW,238,11.0,13.0,69,0.00,,,0.00,573,Wunderground v.1.15,2013-05-08 21:00:00,
2013-05-08 17:30:00,73.4,62.2,30.10,West,271,10.0,12.0,68,0.00,,,0.00,478,Wunderground v.1.15,2013-05-08 21:30:00,
2013-05-08 18:00:00,73.3,61.7,30.10,West,267,10.0,12.0,67,0.00,,,0.00,374,Wunderground v.1.15,2013-05-08 22:00:00,
2013-05-08 18:30:00,73.4,60.9,30.09,West,271,10.0,10.0,65,0.00,,,0.00,269,Wunderground v.1.15,2013-05-08 22:30:00,
2013-05-08 19:00:00,73.3,61.7,30.10,West,274,9.0,9.0,67,0.00,,,0.00,169,Wunderground v.1.15,2013-05-08 23:00:00,
2013-05-08 19:30:00,73.0,62.2,30.10,West,270,10.0,12.0,69,0.00,,,0.00,74,Wunderground v.1.15,2013-05-08 23:30:00,
2013-05-08 20:00:00,72.4,61.7,30.10,WNW,282,8.0,8.0,69,0.00,,,0.00,11,Wunderground v.1.15,2013-05-09 00:00:00,
2013-05-08 20:30:00,72.1,62.2,30.11,WNW,291,6.0,6.0,71,0.00,,,0.00,0,Wunderground v.1.15,2013-05-09 00:30:00,
2013-05-08 21:00:00,71.9,62.4,30.12,WNW,290,6.0,8.0,72,0.00,,,0.00,0,Wunderground v.1.15,2013-05-09 01:00:00,
2013-05-08 21:30:00,71.9,63.2,30.13,WNW,294,6.0,6.0,74,0.00,,,0.00,0,Wunderground v.1.15,2013-05-09 01:30:00,
2013-05-08 22:00:00,71.8,63.4,30.13,WNW,300,0.0,0.0,75,0.00,,,0.00,0,Wunderground v.1.15,2013-05-09 02:00:00,
2013-05-08 22:30:00,71.9,63.5,30.14,NW,316,6.0,9.0,75,0.00,,,0.00,0,Wunderground v.1.15,2013-05-09 02:30:00,
2013-05-08 23:00:00,71.7,63.7,30.14,NW,306,1.0,1.0,76,0.00,,,0.00,0,Wunderground v.1.15,2013-05-09 03:00:00,
2013-05-08 23:30:00,71.8,64.2,30.14,NW,306,6.0,7.0,77,0.00,,,0.00,0,Wunderground v.1.15,2013-05-09 03:30:00,